This is the latest recevied weather packets stored in our database for station/object SV9TNF-56. If no packets are shown the sender has not sent any weather packets the latest 10 day(s).
| Time | Temp. | Humidity | Pressure | Rain* | Wind** | Luminosity | Snow |
|---|---|---|---|---|---|---|---|
| 1787975500 | 23.89° C | 56% | 1018.3 hPa | 0 mm | 14.31 m/s, 153° | - | - |
| 1787975200 | 23.89° C | 55% | 1018.6 hPa | 0 mm | 11.18 m/s, 168° | - | - |
| 1787974900 | 23.89° C | 56% | 1018.6 hPa | 0 mm | 13.86 m/s, 30° | - | - |
| 1787974600 | 23.89° C | 58% | 1019 hPa | 0 mm | 8.05 m/s, 186° | - | - |
| 1787974300 | 23.89° C | 55% | 1018.3 hPa | 0 mm | 27.27 m/s, 156° | - | - |
| 1787974000 | 23.89° C | 57% | 1018.3 hPa | 0 mm | 16.99 m/s, 195° | - | - |
| 1787973700 | 23.89° C | 55% | 1018.3 hPa | 0 mm | 30.4 m/s, 108° | - | - |
| 1787973399 | 23.89° C | 55% | 1018 hPa | 0 mm | 25.48 m/s, 114° | - | - |
| 1787973100 | 23.89° C | 59% | 1018 hPa | 0 mm | 28.61 m/s, 104° | - | - |
| 1787972799 | 23.89° C | 60% | 1018 hPa | 0 mm | 16.99 m/s, 138° | - | - |
| 1787972500 | 23.89° C | 61% | 1018.3 hPa | 0 mm | 10.28 m/s, 104° | - | - |
| 1787972199 | 23.89° C | 62% | 1018 hPa | 0 mm | 20.56 m/s, 188° | - | - |
| 1787971899 | 23.89° C | 61% | 1018 hPa | 0 mm | 16.09 m/s, 250° | - | - |
| 1787971599 | 23.89° C | 63% | 1018.3 hPa | 0 mm | 24.59 m/s, 117° | - | - |
| 1787971299 | 23.89° C | 68% | 1018.3 hPa | 0 mm | 28.61 m/s, 82° | - | - |
| 1787970999 | 23.89° C | 67% | 1018.3 hPa | 0 mm | 24.14 m/s, 126° | - | - |
| 1787970698 | 23.89° C | 66% | 1018.3 hPa | 0 mm | 33.08 m/s, 42° | - | - |
| 1787970399 | 23.89° C | 69% | 1018.3 hPa | 0 mm | 31.29 m/s, 96° | - | - |
| 1787970098 | 23.89° C | 70% | 1018.6 hPa | 0 mm | 16.54 m/s, 126° | - | - |
| 1787969798 | 23.89° C | 68% | 1018.6 hPa | 0 mm | 16.99 m/s, 132° | - | - |
| 1787969498 | 23.89° C | 72% | 1018.6 hPa | 0 mm | 9.83 m/s, 90° | - | - |
| 1787969198 | 23.89° C | 72% | 1018 hPa | 0 mm | 22.8 m/s, 72° | - | - |
| 1787968898 | 23.89° C | 70% | 1018.6 hPa | 0 mm | 26.82 m/s, 116° | - | - |
| 1787968598 | 23.89° C | 70% | 1018.3 hPa | 0 mm | 25.93 m/s, 84° | - | - |
| 1787968298 | 24.44° C | 70% | 1018.6 hPa | 0 mm | 27.72 m/s, 71° | - | - |
* Rain latest hour (hover to see other rain measurements)
** Current wind speed in m/s (hover to see current wind gust speed)